• In Portugal
  • List of Countries
  • For 7 days
  • Water Temperature
  • Satellite Maps
  • Weather Map
  • Weather Widgets
  • user-avatar
    Login

    Hourly Weather Sacapa

    Today, 22 November, Wednesday

    Time Temperature Precipitation Wind Pressure Humidity
    00:00 +17°C° 0 mm 0 mps 696 mmHg 94%
    01:00 +17°C° 0 mm 0 mps 696 mmHg 94%
    02:00 +16°C° 0 mm 0 mps 695 mmHg 94%
    03:00 +16°C° 0 mm 0 mps 695 mmHg 94%
    04:00 +16°C° 0 mm 0 mps 695 mmHg 94%
    05:00 +16°C° 0 mm 0 mps 695 mmHg 94%
    06:00 +16°C° 0 mm 0 mps 696 mmHg 94%
    07:00 +19°C° 0 mm 0 mps 696 mmHg 81%
    08:00 +22°C° 0 mm 0 mps 697 mmHg 68%
    09:00 +25°C° 0 mm 0 mps 698 mmHg 55%
    10:00 +27°C° 0 mm 0 mps 698 mmHg 50%
    11:00 +29°C° 0 mm 0 mps 698 mmHg 44%
    12:00 +33°C° 0 mm 1 mps 698 mmHg 39%
    13:00 +32°C° 0.1 mm 1 mps 697 mmHg 41%
    14:00 +31°C° 0.1 mm 1 mps 696 mmHg 43%
    15:00 +30°C° 0.1 mm 1 mps 696 mmHg 46%
    16:00 +27°C° 0.2 mm 1 mps 696 mmHg 58%
    17:00 +25°C° 0.2 mm 1 mps 696 mmHg 69%
    18:00 +22°C° 0.2 mm 1 mps 696 mmHg 81%
    19:00 +21°C° 0 mm 1 mps 696 mmHg 85%
    20:00 +21°C° 0 mm 1 mps 697 mmHg 89%
    21:00 +20°C° 0 mm 1 mps 698 mmHg 93%
    22:00 +20°C° 0.1 mm 1 mps 698 mmHg 94%
    23:00 +19°C° 0.1 mm 1 mps 698 mmHg 95%

    Tomorrow, 23 November, Thursday

    Time Temperature Precipitation Wind Pressure Humidity
    00:00 +19°C° 0.1 mm 1 mps 698 mmHg 95%
    01:00 +19°C° 0 mm 1 mps 697 mmHg 96%
    02:00 +19°C° 0 mm 1 mps 697 mmHg 96%
    03:00 +19°C° 0 mm 1 mps 697 mmHg 96%
    04:00 +19°C° 0 mm 1 mps 697 mmHg 95%
    05:00 +18°C° 0 mm 1 mps 697 mmHg 95%
    06:00 +18°C° 0 mm 1 mps 697 mmHg 94%
    07:00 +20°C° 0 mm 1 mps 698 mmHg 87%
    08:00 +20°C° 0 mm 2 mps 699 mmHg 79%
    09:00 +23°C° 0 mm 2 mps 699 mmHg 72%
    10:00 +24°C° 0 mm 2 mps 699 mmHg 67%
    11:00 +25°C° 0 mm 2 mps 699 mmHg 61%
    12:00 +26°C° 0 mm 2 mps 698 mmHg 56%
    13:00 +26°C° 0 mm 2 mps 698 mmHg 55%
    14:00 +26°C° 0 mm 2 mps 697 mmHg 54%
    15:00 +27°C° 0 mm 2 mps 696 mmHg 53%
    16:00 +25°C° 0 mm 2 mps 696 mmHg 62%
    17:00 +23°C° 0 mm 2 mps 696 mmHg 71%
    18:00 +20°C° 0 mm 1 mps 696 mmHg 79%
    19:00 +20°C° 0 mm 1 mps 697 mmHg 83%
    20:00 +19°C° 0 mm 1 mps 697 mmHg 87%
    21:00 +18°C° 0 mm 1 mps 698 mmHg 91%
    22:00 +18°C° 0 mm 1 mps 698 mmHg 92%
    23:00 +18°C° 0 mm 1 mps 698 mmHg 92%

    Day after tomorrow, 24 November, Friday

    Time Temperature Precipitation Wind Pressure Humidity
    00:00 +18°C° 0 mm 1 mps 698 mmHg 93%
    01:00 +18°C° 0 mm 1 mps 698 mmHg 94%
    02:00 +18°C° 0 mm 1 mps 697 mmHg 94%
    03:00 +18°C° 0 mm 1 mps 697 mmHg 95%
    04:00 +16°C° 0 mm 1 mps 697 mmHg 95%
    05:00 +16°C° 0 mm 1 mps 697 mmHg 94%
    06:00 +16°C° 0 mm 1 mps 697 mmHg 94%
    07:00 +19°C° 0 mm 1 mps 698 mmHg 86%
    08:00 +20°C° 0 mm 1 mps 699 mmHg 78%
    09:00 +22°C° 0 mm 1 mps 699 mmHg 70%
    10:00 +23°C° 0 mm 2 mps 699 mmHg 63%
    11:00 +25°C° 0 mm 2 mps 698 mmHg 56%
    12:00 +27°C° 0 mm 2 mps 698 mmHg 50%
    13:00 +27°C° 0 mm 2 mps 697 mmHg 50%
    14:00 +27°C° 0 mm 2 mps 697 mmHg 50%
    15:00 +26°C° 0 mm 2 mps 696 mmHg 51%
    16:00 +24°C° 0 mm 2 mps 696 mmHg 60%
    17:00 +21°C° 0 mm 2 mps 696 mmHg 70%
    18:00 +20°C° 0 mm 1 mps 697 mmHg 79%
    19:00 +19°C° 0 mm 1 mps 697 mmHg 83%
    20:00 +19°C° 0 mm 1 mps 698 mmHg 87%
    21:00 +18°C° 0 mm 1 mps 698 mmHg 91%
    22:00 +18°C° 0 mm 1 mps 698 mmHg 92%
    23:00 +16°C° 0 mm 1 mps 698 mmHg 93%

    25 November, Saturday

    Time Temperature Precipitation Wind Pressure Humidity
    00:00 +16°C° 0 mm 1 mps 698 mmHg 94%
    01:00 +16°C° 0 mm 1 mps 698 mmHg 94%
    02:00 +16°C° 0 mm 1 mps 697 mmHg 94%
    03:00 +16°C° 0 mm 1 mps 697 mmHg 94%
    04:00 +16°C° 0 mm 1 mps 697 mmHg 94%
    05:00 +16°C° 0 mm 1 mps 697 mmHg 95%
    06:00 +16°C° 0 mm 1 mps 698 mmHg 95%
    07:00 +19°C° 0 mm 1 mps 698 mmHg 85%
    08:00 +21°C° 0 mm 1 mps 699 mmHg 75%
    09:00 +24°C° 0 mm 1 mps 700 mmHg 65%
    10:00 +25°C° 0 mm 1 mps 699 mmHg 59%
    11:00 +27°C° 0 mm 1 mps 699 mmHg 53%
    12:00 +29°C° 0 mm 1 mps 698 mmHg 47%
    13:00 +29°C° 0 mm 2 mps 698 mmHg 48%
    14:00 +28°C° 0 mm 2 mps 697 mmHg 49%
    15:00 +28°C° 0 mm 2 mps 696 mmHg 49%
    16:00 +26°C° 0 mm 2 mps 696 mmHg 60%
    17:00 +24°C° 0 mm 1 mps 697 mmHg 71%
    18:00 +21°C° 0 mm 1 mps 697 mmHg 82%
    19:00 +21°C° 0 mm 1 mps 697 mmHg 85%
    20:00 +20°C° 0 mm 1 mps 698 mmHg 89%
    21:00 +19°C° 0 mm 1 mps 699 mmHg 93%
    22:00 +19°C° 0 mm 1 mps 698 mmHg 94%
    23:00 +19°C° 0 mm 1 mps 698 mmHg 95%

    26 November, Sunday

    Time Temperature Precipitation Wind Pressure Humidity
    00:00 +19°C° 0 mm 1 mps 698 mmHg 96%
    01:00 +19°C° 0 mm 1 mps 698 mmHg 96%
    02:00 +18°C° 0 mm 1 mps 697 mmHg 96%
    03:00 +18°C° 0 mm 1 mps 697 mmHg 96%
    04:00 +18°C° 0 mm 1 mps 697 mmHg 96%
    05:00 +18°C° 0 mm 1 mps 698 mmHg 96%
    06:00 +18°C° 0 mm 1 mps 698 mmHg 96%
    07:00 +19°C° 0 mm 1 mps 699 mmHg 89%
    08:00 +21°C° 0 mm 1 mps 699 mmHg 83%
    09:00 +22°C° 0 mm 1 mps 700 mmHg 76%
    10:00 +23°C° 0.1 mm 2 mps 700 mmHg 71%
    11:00 +24°C° 0.1 mm 2 mps 699 mmHg 66%
    12:00 +25°C° 0.1 mm 2 mps 699 mmHg 61%
    13:00 +25°C° 0 mm 2 mps 698 mmHg 60%
    14:00 +26°C° 0 mm 2 mps 698 mmHg 58%
    15:00 +26°C° 0 mm 2 mps 697 mmHg 57%
    16:00 +24°C° 0 mm 2 mps 697 mmHg 65%
    17:00 +21°C° 0 mm 2 mps 698 mmHg 73%
    18:00 +19°C° 0 mm 2 mps 698 mmHg 81%
    19:00 +18°C° 0 mm 2 mps 698 mmHg 85%
    20:00 +18°C° 0 mm 2 mps 699 mmHg 89%
    21:00 +17°C° 0 mm 2 mps 699 mmHg 92%
    22:00 +17°C° 0 mm 2 mps 699 mmHg 92%
    23:00 +16°C° 0 mm 1 mps 699 mmHg 93%

    27 November, Monday

    Time Temperature Precipitation Wind Pressure Humidity
    00:00 +16°C° 0 mm 1 mps 698 mmHg 93%
    01:00 +16°C° 0 mm 1 mps 698 mmHg 93%
    02:00 +16°C° 0 mm 1 mps 698 mmHg 94%
    03:00 +15°C° 0 mm 1 mps 698 mmHg 94%
    04:00 +15°C° 0 mm 1 mps 698 mmHg 94%
    05:00 +15°C° 0 mm 1 mps 698 mmHg 94%
    06:00 +15°C° 0 mm 1 mps 699 mmHg 93%
    07:00 +16°C° 0 mm 2 mps 699 mmHg 86%
    08:00 +18°C° 0 mm 2 mps 700 mmHg 79%
    09:00 +19°C° 0 mm 2 mps 700 mmHg 72%
    10:00 +20°C° 0 mm 2 mps 700 mmHg 66%
    11:00 +23°C° 0 mm 2 mps 699 mmHg 60%
    12:00 +24°C° 0 mm 3 mps 699 mmHg 54%
    13:00 +24°C° 0 mm 3 mps 698 mmHg 53%
    14:00 +25°C° 0 mm 3 mps 697 mmHg 52%
    15:00 +25°C° 0 mm 3 mps 697 mmHg 51%
    16:00 +23°C° 0 mm 2 mps 697 mmHg 60%
    17:00 +20°C° 0 mm 2 mps 697 mmHg 69%
    18:00 +18°C° 0 mm 2 mps 697 mmHg 78%
    19:00 +18°C° 0 mm 1 mps 697 mmHg 82%
    20:00 +16°C° 0 mm 1 mps 698 mmHg 86%
    21:00 +15°C° 0 mm 1 mps 698 mmHg 90%
    22:00 +15°C° 0 mm 1 mps 698 mmHg 91%
    23:00 +15°C° 0 mm 1 mps 698 mmHg 91%
    Show more